FW5810 Weather Reports


time (UTC)temp
C
wind
direction
speed
KPH
gust
KPH
rain 1hr
cm
rain 24hr
cm
rain mn
cm
humidity
%
barometer
mb
20260901204746 30 235 8.0 16.1 0.00 0.00 0.00 64 1016.1
20260901204242 30 188 4.8 11.3 0.00 0.00 0.00 66 1016.3
20260901203737 30 145 4.8 6.4 0.00 0.00 0.00 67 1016.3
20260901203236 30 226 1.6 8.0 0.00 0.00 0.00 67 1016.2
20260901202736 30 284 3.2 12.9 0.00 0.00 0.00 66 1016.4
20260901202232 30 317 4.8 12.9 0.00 0.00 0.00 66 1016.3
20260901201726 29 253 4.8 12.9 0.00 0.00 0.00 67 1016.4
20260901201221 30 202 6.4 16.1 0.00 0.00 0.00 65 1016.2
20260901200720 30 128 8.0 12.9 0.00 0.00 0.00 62 1016.0
20260901200216 31 257 11.3 16.1 0.00 0.00 0.00 61 1015.9
20260901195714 31 251 11.3 16.1 0.00 0.00 0.00 61 1016.0
20260901195208 31 287 4.8 12.9 0.00 0.00 0.00 59 1015.9
20260901194703 31 240 4.8 8.0 0.00 0.00 0.00 60 1015.7
20260901194153 32 215 6.4 8.0 0.00 0.00 0.00 59 1015.8
20260901193648 31 268 1.6 11.3 0.00 0.00 0.00 61 1015.9
20260901193142 31 249 4.8 16.1 0.00 0.00 0.00 58 1015.7
20260901192637 30 226 4.8 11.3 0.00 0.00 0.00 61 1015.8
20260901192133 31 194 8.0 12.9 0.00 0.00 0.00 58 1015.8
20260901191628 31 142 8.0 11.3 0.00 0.00 0.00 59 1015.9
20260901191125 31 218 4.8 11.3 0.00 0.00 0.00 63 1016.0
20260901190620 31 160 4.8 8.0 0.00 0.00 0.00 61 1016.0
20260901190119 31 199 6.4 12.9 0.00 0.00 0.00 62 1016.0
20260901185618 31 261 8.0 12.9 0.00 0.00 0.00 62 1016.2
20260901185116 30 220 4.8 8.0 0.00 0.00 0.00 64 1016.0
20260901184612 30 245 6.4 17.7 0.00 0.00 0.00 63 1016.1
20260901184107 30 223 9.7 12.9 0.00 0.00 0.00 64 1016.0
20260901183602 30 164 3.2 11.3 0.00 0.00 0.00 66 1016.1
20260901183057 30 68 1.6 22.5 0.00 0.00 0.00 68 1016.2
20260901182554 30 238 8.0 17.7 0.00 0.00 0.00 68 1016.4
20260901182054 30 255 6.4 11.3 0.00 0.00 0.00 67 1016.1
20260901181553 30 145 8.0 12.9 0.00 0.00 0.00 65 1015.9
20260901181052 30 256 11.3 16.1 0.00 0.00 0.00 63 1016.2
20260901180551 30 131 6.4 12.9 0.00 0.00 0.00 64 1016.2
20260901180046 30 286 6.4 12.9 0.00 0.00 0.00 65 1016.3
20260901175540 31 222 3.2 22.5 0.00 0.00 0.00 63 1016.0
20260901175034 30 313 6.4 6.4 0.00 0.00 0.00 65 1016.1
20260901174530 30 189 6.4 8.0 0.00 0.00 0.00 66 1016.1
20260901174027 30 216 3.2 8.0 0.00 0.00 0.00 65 1016.1
20260901173526 30 221 12.9 19.3 0.00 0.00 0.00 64 1016.6
20260901173022 30 274 11.3 17.7 0.00 0.00 0.00 64 1016.5
20260901172518 31 0 17.7 25.7 0.00 0.00 0.00 62 1016.6
20260901172015 31 157 9.7 16.1 0.00 0.00 0.00 63 1016.4
20260901171515 31 183 6.4 22.5 0.00 0.00 0.00 61 1016.3
20260901171014 31 246 6.4 12.9 0.00 0.00 0.00 63 1016.5
20260901170508 31 219 11.3 17.7 0.00 0.00 0.00 60 1016.6
20260901170003 31 258 12.9 16.1 0.00 0.00 0.00 60 1016.7
20260901165457 31 237 6.4 12.9 0.00 0.00 0.00 58 1016.6
20260901164953 31 241 6.4 12.9 0.00 0.00 0.00 62 1016.5
20260901164448 31 240 8.0 8.0 0.00 0.00 0.00 61 1016.6
20260901163943 31 4 3.2 16.1 0.00 0.00 0.00 60 1016.7
20260901163438 31 103 8.0 11.3 0.00 0.00 0.00 62 1016.5
20260901162937 31 266 11.3 17.7 0.00 0.00 0.00 60 1016.7
20260901162432 31 230 3.2 16.1 0.00 0.00 0.00 62 1016.7
20260901161932 31 330 4.8 17.7 0.00 0.00 0.00 60 1016.6
20260901161431 30 237 4.8 12.9 0.00 0.00 0.00 63 1016.6
20260901160926 30 225 11.3 22.5 0.00 0.00 0.00 63 1016.7
20260901160422 31 227 8.0 12.9 0.00 0.00 0.00 62 1016.6
20260901155921 31 86 1.6 8.0 0.00 0.00 0.00 62 1016.9
20260901155416 31 248 4.8 8.0 0.00 0.00 0.00 61 1016.5
20260901154913 30 21 3.2 4.8 0.00 0.00 0.00 63 1016.5
20260901154412 30 301 6.4 6.4 0.00 0.00 0.00 65 1016.5
20260901153906 30 78 6.4 8.0 0.00 0.00 0.00 64 1016.5
20260901153406 30 277 16.1 19.3 0.00 0.00 0.00 64 1016.6
20260901152900 30 245 8.0 19.3 0.00 0.00 0.00 63 1016.5
20260901152355 30 50 1.6 6.4 0.00 0.00 0.00 65 1016.6
20260901151849 29 307 3.2 12.9 0.00 0.00 0.00 66 1016.6
20260901151344 30 239 4.8 11.3 0.00 0.00 0.00 65 1016.7
20260901150843 29 314 9.7 12.9 0.00 0.00 0.00 64 1016.9
20260901150341 29 98 4.8 12.9 0.00 0.00 0.00 65 1016.6
20260901145838 29 341 4.8 12.9 0.00 0.00 0.00 65 1016.6
20260901145333 29 16 3.2 8.0 0.00 0.00 0.00 67 1016.6
20260901144828 28 234 8.0 16.1 0.00 0.00 0.00 66 1016.6
20260901144324 29 332 1.6 16.1 0.00 0.00 0.00 66 1016.7
20260901143820 28 107 3.2 16.1 0.00 0.00 0.00 67 1016.5
20260901143316 28 204 4.8 19.3 0.00 0.00 0.00 68 1016.4
20260901142812 28 234 8.0 11.3 0.00 0.00 0.00 67 1016.6
20260901142310 28 352 4.8 11.3 0.00 0.00 0.00 68 1016.4
20260901141806 28 27 1.6 25.7 0.00 0.00 0.00 70 1016.5
20260901141301 27 236 4.8 12.9 0.00 0.00 0.00 71 1016.4
20260901140800 27 242 6.4 16.1 0.00 0.00 0.00 70 1016.4
20260901140258 27 256 6.4 11.3 0.00 0.00 0.00 70 1016.2
20260901135754 27 211 4.8 8.0 0.00 0.00 0.00 71 1016.1
20260901135253 27 354 4.8 19.3 0.00 0.00 0.00 71 1016.4
20260901134750 27 201 4.8 4.8 0.00 0.00 0.00 72 1016.4
20260901134249 27 275 6.4 16.1 0.00 0.00 0.00 73 1016.5
20260901133748 27 276 11.3 16.1 0.00 0.00 0.00 72 1016.5
20260901133243 27 248 4.8 11.3 0.00 0.00 0.00 72 1016.5
20260901132741 27 43 4.8 8.0 0.00 0.00 0.00 72 1016.4
20260901132236 27 316 3.2 4.8 0.00 0.00 0.00 74
20260901131731 26 252 4.8 4.8 0.00 0.00 0.00 76
20260901131230 26 245 4.8 8.0 0.00 0.00 0.00 78
20260901130726 25 247 3.2 4.8 0.00 0.00 0.00 80
20260901130225 25 227 6.4 8.0 0.00 0.00 0.00 80
20260901125723 25 262 1.6 6.4 0.00 0.00 0.00 81
20260901125218 25 240 4.8 11.3 0.00 0.00 0.00 83
20260901124712 24 298 3.2 4.8 0.00 0.00 0.00 84
20260901124207 24 247 0.0 4.8 0.00 0.00 0.00 84
20260901123707 24 297 3.2 6.4 0.00 0.00 0.00 84
20260901123202 24 236 1.6 1.6 0.00 0.00 0.00 85
20260901122700 24 208 1.6 4.8 0.00 0.00 0.00 85
20260901122155 23 146 1.6 4.8 0.00 0.00 0.00 85
20260901121649 23 191 1.6 1.6 0.00 0.00 0.00 86
20260901121145 23 295 1.6 4.8 0.00 0.00 0.00 86
20260901120644 23 251 1.6 4.8 0.00 0.00 0.00 86
20260901120140 23 249 0.0 4.8 0.00 0.00 0.00 86
20260901115635 23 221 0.0 4.8 0.00 0.00 0.00 86
20260901115131 23 257 4.8 6.4 0.00 0.00 0.00 86
20260901114627 23 126 0.0 1.6 0.00 0.00 0.00 87
20260901114126 23 208 1.6 6.4 0.00 0.00 0.00 87
20260901113620 23 159 3.2 4.8 0.00 0.00 0.00 87
20260901113115 23 144 1.6 4.8 0.00 0.00 0.00 87
20260901112615 23 236 4.8 6.4 0.00 0.00 0.00 87
20260901112109 23 232 0.0 0.0 0.00 0.00 0.00 87
20260901111608 23 83 1.6 4.8 0.00 0.00 0.00 87
20260901111107 23 212 1.6 6.4 0.00 0.00 0.00 87
20260901110603 23 124 0.0 4.8 0.00 0.00 0.00 87
20260901110058 23 229 1.6 6.4 0.00 0.00 0.00 87
20260901105555 23 205 3.2 6.4 0.00 0.00 0.00 87
20260901105048 23 116 0.0 4.8 0.00 0.00 0.00 86
20260901104545 23 215 3.2 4.8 0.00 0.00 0.00 86
20260901104040 23 111 1.6 6.4 0.00 0.00 0.00 86
20260901103534 23 216 0.0 1.6 0.00 0.00 0.00 86
20260901103030 23 249 3.2 4.8 0.00 0.00 0.00 86
20260901102530 23 230 3.2 6.4 0.00 0.00 0.00 86
20260901102024 23 132 1.6 4.8 0.00 0.00 0.00 86
20260901101520 23 98 0.0 1.6 0.00 0.00 0.00 86
20260901101019 23 151 0.0 4.8 0.00 0.00 0.00 85
20260901100514 23 222 0.0 6.4 0.00 0.00 0.00 85
20260901100014 23 134 0.0 4.8 0.00 0.00 0.00 85
20260901095512 23 225 4.8 4.8 0.00 0.00 0.00 84
20260901095010 23 263 1.6 4.8 0.00 0.00 0.00 84
20260901094505 23 123 3.2 6.4 0.00 0.00 0.00 84
20260901094004 23 314 3.2 8.0 0.00 0.00 0.00 84
20260901093504 23 176 1.6 6.4 0.00 0.00 0.00 84
20260901092959 23 195 3.2 4.8 0.00 0.00 0.00 85
20260901092455 23 150 3.2 6.4 0.00 0.00 0.00 85
20260901091951 23 230 4.8 6.4 0.00 0.00 0.00 85
20260901091446 23 219 0.0 1.6 0.00 0.00 0.00 85
20260901090941 23 189 0.0 1.6 0.00 0.00 0.00 86
20260901090440 23 246 0.0 0.0 0.00 0.00 0.00 86
20260901085936 23 187 0.0 4.8 0.00 0.00 0.00 86
20260901085432 23 184 4.8 6.4 0.00 0.00 0.00 87
20260901084928 23 196 1.6 1.6 0.00 0.00 0.00 87
20260901084424 23 196 0.0 0.0 0.00 0.00 0.00 87
20260901083919 23 219 1.6 4.8 0.00 0.00 0.00 87
20260901083414 23 231 3.2 4.8 0.00 0.00 0.00 86
20260901082912 23 132 1.6 1.6 0.00 0.00 0.00 86
20260901082408 23 246 1.6 4.8 0.00 0.00 0.00 86
20260901081902 23 275 0.0 1.6 0.00 0.00 0.00 87
20260901081358 22 172 0.0 0.0 0.00 0.00 0.00 87
20260901080857 22 173 0.0 1.6 0.00 0.00 0.00 88
20260901080351 22 172 0.0 1.6 0.00 0.00 0.00 88
20260901075845 22 134 0.0 0.0 0.00 0.00 0.00 88
20260901075341 22 134 0.0 1.6 0.00 0.00 0.00 88
20260901074830 22 134 0.0 0.0 0.00 0.00 0.00 88
20260901074325 22 134 0.0 4.8 0.00 0.00 0.00 88
20260901073820 22 135 0.0 0.0 0.00 0.00 0.00 88
20260901073316 22 274 1.6 1.6 0.00 0.00 0.00 88
20260901072812 22 275 1.6 1.6 0.00 0.00 0.00 88
20260901072311 22 275 0.0 0.0 0.00 0.00 0.00 88
20260901071807 22 275 1.6 1.6 0.00 0.00 0.00 89
20260901071305 22 275 0.0 0.0 0.00 0.00 0.00 90
20260901070804 22 275 0.0 1.6 0.00 0.00 0.00 89
20260901070300 22 275 1.6 1.6 0.00 0.00 0.00 91
20260901065759 22 275 0.0 0.0 0.00 0.00 0.00 91
20260901065254 22 275 1.6 1.6 0.00 0.00 0.00 92
20260901064750 22 275 0.0 0.0 0.00 0.00 0.00 92
20260901064246 22 275 0.0 1.6 0.00 0.00 0.00 92
20260901063744 22 275 0.0 0.0 0.00 0.00 0.00 93
20260901063239 22 275 0.0 0.0 0.00 0.00 0.00 93
20260901062736 22 275 0.0 0.0 0.00 0.00 0.00 93
20260901062231 22 275 0.0 1.6 0.00 0.00 0.00 93
20260901061727 22 276 0.0 1.6 0.00 0.00 0.00 93
20260901061226 22 276 0.0 0.0 0.00 0.00 0.00 93
20260901060721 22 276 0.0 0.0 0.00 0.00 0.00 93
20260901060217 22 276 0.0 0.0 0.00 0.00 0.00 93
20260901055712 22 276 0.0 0.0 0.00 0.00 0.00 93
20260901055209 22 276 0.0 0.0 0.00 0.00 0.00 93
20260901054706 21 276 0.0 0.0 0.00 0.00 0.00 94
20260901054202 21 276 0.0 1.6 0.00 0.00 0.00 94
20260901053657 21 275 0.0 0.0 0.00 0.00 0.00 94
20260901053153 21 276 0.0 0.0 0.00 0.00 0.00 95
20260901052648 21 276 0.0 0.0 0.00 0.00 0.00 95
20260901052143 21 276 1.6 1.6 0.00 0.00 0.00 96
20260901051642 21 276 0.0 0.0 0.00 0.00 0.00 96
20260901051142 21 276 0.0 0.0 0.00 0.00 0.00 96
20260901050637 21 276 0.0 0.0 0.00 0.00 0.00 97
20260901050132 21 276 0.0 0.0 0.00 0.00 0.00 96
20260901045627 21 276 0.0 0.0 0.00 0.00 0.00 97
20260901045122 21 276 0.0 0.0 0.00 0.00 0.00 96
20260901044618 21 275 0.0 0.0 0.00 0.00 0.00 96
20260901044114 21 275 0.0 0.0 0.00 0.00 0.00 96
20260901043609 21 275 0.0 0.0 0.00 0.00 0.00 96
20260901043104 21 275 1.6 0.0 0.00 0.00 0.00 96
20260901042603 21 275 0.0 0.0 0.00 0.00 0.00 96
20260901042059 21 276 1.6 1.6 0.00 0.00 0.00 96
20260901041554 21 275 0.0 0.0 0.00 0.00 0.00 97
20260901041049 21 276 0.0 0.0 0.00 0.00 0.00 96
20260901040548 21 276 0.0 1.6 0.00 0.00 0.00 96
20260901040043 21 276 0.0 0.0 0.00 0.00 0.00 96
20260901035541 21 276 1.6 1.6 0.00 0.03 0.03 96
20260901035039 21 276 1.6 1.6 0.00 0.03 0.03 96
20260901034534 21 276 0.0 0.0 0.00 0.03 0.03 95
20260901034029 21 276 0.0 0.0 0.00 0.03 0.03 95
20260901033527 21 276 0.0 0.0 0.00 0.03 0.03 95
20260901033027 21 276 0.0 0.0 0.00 0.03 0.03 95
20260901032526 21 276 0.0 0.0 0.00 0.03 0.03 95
20260901032021 21 276 0.0 0.0 0.00 0.03 0.03 94
20260901031517 22 276 0.0 0.0 0.00 0.03 0.03 94
20260901031012 22 276 0.0 0.0 0.00 0.03 0.03 94
20260901030512 22 276 0.0 0.0 0.00 0.03 0.03 93
20260901030007 22 276 0.0 0.0 0.00 0.03 0.03 93
20260901025501 22 275 0.0 0.0 0.00 0.03 0.03 93
20260901025001 22 276 0.0 0.0 0.00 0.03 0.03 93
20260901024456 22 276 0.0 0.0 0.00 0.03 0.03 93
20260901023954 22 275 0.0 0.0 0.00 0.03 0.03 93
20260901023449 22 275 0.0 1.6 0.00 0.03 0.03 93
20260901022943 22 28 1.6 1.6 0.00 0.03 0.03 92
20260901022440 22 28 0.0 1.6 0.00 0.03 0.03 92
20260901021934 22 29 0.0 0.0 0.00 0.03 0.03 92
20260901021430 22 29 0.0 0.0 0.00 0.03 0.03 91
20260901020925 22 28 0.0 0.0 0.00 0.03 0.03 92
20260901020420 23 29 1.6 1.6 0.00 0.03 0.03 91
20260901015919 23 29 0.0 0.0 0.00 0.03 0.03 90
20260901015416 23 29 1.6 1.6 0.00 0.03 0.03 88
20260901014915 23 29 0.0 0.0 0.00 0.03 0.03 86
20260901014412 23 29 0.0 0.0 0.00 0.03 0.03 86
20260901013907 23 28 0.0 1.6 0.00 0.03 0.03 86
20260901013402 24 153 1.6 1.6 0.00 0.03 0.03 85
20260901012858 24 154 1.6 1.6 0.00 0.03 0.03 82
20260901012353 23 153 0.0 0.0 0.00 0.03 0.03 84
20260901011848 23 153 0.0 4.8 0.00 0.03 0.03 84
20260901011344 23 161 3.2 4.8 0.00 0.03 0.03 84
20260901010843 24 239 0.0 0.0 0.00 0.03 0.03 82
20260901010337 24 240 0.0 0.0 0.00 0.03 0.03 81
20260901005836 24 240 1.6 1.6 0.00 0.03 0.03 81
20260901005331 24 240 1.6 1.6 0.00 0.03 0.03 80
20260901004826 25 240 0.0 0.0 0.00 0.03 0.03 81
20260901004320 25 240 0.0 0.0 0.00 0.03 0.03 81
20260901003814 25 240 0.0 0.0 0.00 0.03 0.03 79
20260901003309 25 240 0.0 0.0 0.00 0.03 0.03 78
20260901002803 25 240 0.0 0.0 0.00 0.03 0.03 78
20260901002258 25 240 0.0 0.0 0.00 0.03 0.03 77
20260901001753 25 240 0.0 0.0 0.00 0.03 0.03 77
20260901001248 25 240 0.0 0.0 0.00 0.03 0.03 75
20260901000738 25 240 0.0 0.0 0.00 0.03 0.03 75
20260901000233 26 240 0.0 0.0 0.00 0.03 0.03 75
20260831235725 26 240 0.0 0.0 0.00 0.03 0.03 74
20260831235221 26 240 0.0 0.0 0.00 0.03 0.03 74
20260831234721 26 240 0.0 0.0 0.00 0.03 0.03 73
20260831234216 26 240 0.0 0.0 0.00 0.03 0.03 72
20260831233711 26 240 0.0 1.6 0.00 0.03 0.03 74
20260831233207 26 241 0.0 1.6 0.00 0.03 0.03 76
20260831232706 26 317 1.6 1.6 0.00 0.03 0.03 75
20260831232203 26 317 0.0 1.6 0.00 0.03 0.03 78
20260831231659 26 317 0.0 1.6 0.00 0.03 0.03 79
20260831231155 26 317 0.0 1.6 0.00 0.03 0.03 77
20260831230654 27 317 1.6 1.6 0.00 0.03 0.03 77
20260831230150 27 317 0.0 1.6 0.00 0.03 0.03 74
20260831225649 28 317 1.6 1.6 0.00 0.03 0.03 71
20260831225144 28 318 0.0 0.0 0.00 0.03 0.03 70
20260831224639 28 317 0.0 0.0 0.00 0.03 0.03 71
20260831224135 28 317 0.0 0.0 0.00 0.03 0.03 68
20260831223630 28 317 0.0 0.0 0.00 0.03 0.03 65
20260831223126 28 317 0.0 1.6 0.00 0.03 0.03 67
20260831222622 29 342 0.0 0.0 0.00 0.03 0.03 63
20260831222118 28 342 0.0 0.0 0.00 0.03 0.03 66
20260831221613 28 342 1.6 1.6 0.00 0.03 0.03 69
20260831221114 28 15 0.0 0.0 0.00 0.03 0.03 68
20260831220608 28 15 0.0 0.0 0.00 0.03 0.03 68
20260831220104 28 15 0.0 0.0 0.00 0.03 0.03 66
20260831215559 29 14 1.6 4.8 0.00 0.03 0.03 62
20260831215054 29 37 3.2 6.4 0.00 0.03 0.03 60
20260831214547 30 4 4.8 4.8 0.00 0.03 0.03 60
20260831214042 30 6 1.6 1.6 0.00 0.03 0.03 60
20260831213538 30 6 1.6 1.6 0.00 0.03 0.03 58
20260831213028 31 293 3.2 4.8 0.00 0.03 0.03 55
20260831212524 31 236 1.6 1.6 0.00 0.03 0.03 56
20260831212019 31 18 0.0 0.0 0.00 0.03 0.03 59
20260831211513 31 310 1.6 4.8 0.00 0.03 0.03 58
20260831211012 31 322 3.2 6.4 0.00 0.03 0.03 59
20260831210508 30 357 0.0 4.8 0.00 0.03 0.03 60
20260831210004 30 246 4.8 6.4 0.00 0.03 0.03 61
20260831205458 30 212 3.2 4.8 0.00 0.03 0.03 64
20260831204954 29 204 1.6 1.6 0.00 0.03 0.03 65